Temperature
16 16 16 16 16 16 15 15 15 15 15 15 15 15 15 15 15 15 14 14 14 14 14 14 14 14 14 14 13 13 13 13 13 13 13 12 12 12 12 12 12 12 11
16 16 16 16 16 16 15 15 15 15 15 15 15 15 15 15 15 15 14 14 14 14 14 14 14 14 13 13 13 13 13 13 13 12 12 12 12 12 12 12 12 11 11
16 16 16 16 16 16 15 15 15 15 15 15 15 15 15 15 14 14 14 14 14 14 14 14 14 13 13 13 13 13 13 13 12 12 12 12 12 11 11 11 11 11 11
16 16 16 16 16 15 15 15 15 15 15 15 15 15 15 15 14 14 14 14 14 14 14 14 14 14 13 13 13 13 13 12 12 12 12 12 11 11 11 11 11 10 10
16 16 16 15 15 15 15 15 15 15 15 15 15 15 15 14 14 14 14 14 14 14 13 13 13 13 13 13 13 13 13 12 12 12 12 11 11 11 11 11 10 10 10
16 16 15 15 15 15 15 15 15 15 15 15 15 15 14 14 14 14 14 14 13 13 13 13 13 13 13 13 13 13 12 12 12 12 11 11 11 11 11 10 10 10 9
15 15 15 15 15 15 15 15 14 14 15 14 14 14 14 14 14 14 13 13 13 13 13 13 13 13 13 12 12 12 12 12 12 11 11 11 11 11 11 10 10 10 9
15 15 15 15 15 14 14 14 14 14 14 14 14 14 14 14 13 13 13 13 13 13 13 13 12 12 12 12 12 12 12 12 11 11 11 11 10 10 10 10 10 9 9
15 15 15 14 14 14 14 14 14 14 14 14 14 13 13 13 13 13 13 13 13 13 12 12 12 12 12 12 12 12 12 11 11 11 11 10 10 10 10 10 9 9 9
15 15 14 14 14 14 14 14 14 13 13 13 13 13 13 13 13 13 13 12 12 12 12 12 12 12 12 12 12 11 11 11 11 11 10 10 10 10 9 9 9 9 8
14 14 14 14 14 14 13 13 13 13 13 13 13 12 12 12 12 12 12 12 12 12 12 12 12 12 11 11 11 11 11 11 10 10 10 10 9 9 9 9 9 8 8
14 14 14 14 13 13 13 13 13 13 12 12 12 12 12 12 12 12 12 12 12 12 12 12 11 11 11 11 11 11 11 10 10 10 10 9 9 9 9 9 8 8 7
14 14 13 13 13 13 13 13 12 12 12 12 12 12 12 12 12 12 12 12 11 11 11 11 11 11 11 11 11 11 10 10 10 10 9 9 9 9 8 8 8 8 7
13 13 13 13 12 12 12 12 12 12 11 11 11 11 11 11 11 11 11 11 11 11 11 11 11 11 10 10 10 10 10 10 9 9 9 9 8 8 8 8 7 7 7
13 12 12 12 12 12 12 12 12 12 11 11 11 11 11 11 11 11 11 11 11 11 11 11 10 10 10 10 10 10 10 9 9 9 8 8 8 8 7 7 7 7 6
12 12 12 12 12 12 11 11 11 11 11 11 11 11 11 11 11 11 11 11 11 10 10 10 10 10 10 9 9 9 9 9 9 8 8 8 7 7 7 7 6 6 6
12 12 12 12 12 11 11 11 11 11 11 11 11 10 10 10 10 10 10 10 10 10 10 9 9 9 9 9 9 9 8 8 8 8 7 7 7 7 6 6 6 6 6
12 11 11 11 11 11 11 11 11 11 10 10 10 10 10 10 10 10 10 10 10 9 9 9 9 9 9 9 8 8 8 8 7 7 7 7 6 6 6 6 6 5 5
11 11 11 11 11 10 10 10 10 10 10 10 10 10 9 9 9 9 9 9 9 9 9 9 9 9 8 8 8 8 7 7 7 7 7 6 6 6 6 5 5 5 5
11 10 10 10 10 10 10 10 9 9 9 9 9 9 9 9 9 9 9 9 8 8 8 8 8 8 8 8 7 7 7 7 7 6 6 6 6 5 5 5 5 5 4
10 10 10 9 9 9 9 9 9 9 8 8 9 9 8 8 8 8 8 8 8 8 8 8 8 7 7 7 7 7 6 6 6 6 6 6 5 5 5 5 4 4 4
10 9 9 9 9 9 8 8 8 8 8 8 8 8 8 8 8 8 7 7 7 7 7 7 7 7 7 6 6 6 6 6 6 5 5 5 5 5 4 4 4 4 3
9 9 9 9 8 8 8 8 7 7 7 7 7 7 7 7 7 7 7 7 7 7 7 6 6 6 6 6 6 6 5 5 5 5 5 5 4 4 4 4 3 3 3
9 8 8 8 8 8 7 7 7 7 7 7 7 7 7 7 6 6 6 6 6 6 6 6 6 6 6 5 5 5 5 5 5 4 4 4 4 3 3 3 3 3 2
8 8 7 7 7 7 7 7 7 6 6 6 6 6 6 6 6 6 6 6 6 6 5 5 5 5 5 5 5 5 5 4 4 4 4 3 3 3 2 2 2 2 2
7 7 7 7 7 7 6 6 6 6 6 6 6 6 6 5 5 5 6 5 5 5 5 5 5 5 5 4 4 4 4 4 4 3 3 3 3 2 2 2 2 2 2
Wind_Speed
3 3 4 4 3 3 2 2 3 3 3 3 3 2 3 3 3 3 1 1 1 2 2 3 3 3 2 2 2 2 2 2 3 2 3 3 4 4 4 5 5 6 5
3 3 4 4 4 4 4 3 3 3 2 2 3 3 3 3 2 4 2 1 1 2 2 3 3 3 3 2 2 2 2 2 3 3 2 2 2 3 3 3 3 4 5
3 3 3 4 4 3 3 3 3 3 3 2 2 3 3 2 2 3 3 2 2 2 3 3 3 3 2 2 2 2 1 2 2 3 2 1 1 2 2 2 2 2 3
4 3 3 3 3 3 2 2 2 2 2 2 3 3 3 2 2 2 2 2 2 2 3 3 4 4 3 2 2 2 2 2 2 2 2 1 1 1 2 1 1 0 1
4 3 3 3 3 3 3 2 2 1 2 2 3 3 2 2 2 3 2 2 2 2 3 4 5 6 6 4 3 2 3 2 1 2 1 1 1 1 1 0 0 0 0
4 4 3 3 3 3 3 3 2 1 2 2 3 3 3 3 5 4 3 1 1 2 2 3 4 5 6 5 5 4 4 3 1 1 1 1 1 1 1 1 1 0 1
3 3 3 3 3 3 3 3 2 2 2 2 2 3 3 3 5 4 3 1 0 1 2 2 2 4 5 3 3 2 1 1 3 3 1 1 1 1 1 1 1 1 2
4 4 4 3 4 3 3 3 2 2 2 1 2 2 3 3 5 4 2 0 1 1 2 2 2 3 3 3 2 2 1 1 3 3 2 1 1 1 2 2 2 1 1
3 3 3 4 4 4 4 3 2 2 2 2 2 2 3 3 4 4 3 1 1 1 1 2 3 3 3 3 2 1 1 1 2 4 4 2 2 1 2 2 1 1 1
3 3 3 3 4 4 3 3 2 2 2 2 2 2 3 3 5 5 4 1 1 1 1 2 4 4 4 3 2 1 0 0 1 1 1 1 1 1 0 2 2 1 1
3 3 3 3 3 3 3 3 2 2 2 2 2 2 3 4 5 6 5 2 1 1 1 2 2 4 4 3 2 1 1 1 0 1 1 1 0 1 1 1 1 2 2
3 3 3 3 2 3 3 3 3 3 2 2 2 2 1 3 4 6 6 4 1 1 1 1 2 4 3 2 1 1 0 1 0 0 0 0 0 1 1 1 1 2 2
3 3 3 3 2 3 3 3 2 2 2 2 1 1 1 1 2 5 5 4 2 1 0 1 2 4 2 1 2 1 0 0 1 1 1 2 1 1 0 0 1 1 3
3 3 3 3 2 2 2 2 2 2 2 2 2 1 1 1 2 2 1 2 2 1 0 0 2 2 2 2 1 1 2 2 2 2 2 2 1 1 1 1 1 1 2
3 3 3 3 3 2 1 1 2 2 2 3 2 2 2 2 3 4 3 2 2 2 2 1 1 1 1 2 2 2 2 2 2 2 2 2 2 2 2 2 2 1 2
3 3 3 2 2 2 2 1 2 0 2 2 3 3 2 4 5 5 5 5 4 4 3 2 2 2 2 3 3 2 2 3 3 2 2 3 3 3 3 2 2 2 3
4 3 3 3 3 3 3 3 1 1 1 1 2 3 3 4 4 5 4 3 4 4 3 3 3 3 3 3 3 3 3 3 3 2 3 3 3 2 2 3 3 2 3
4 4 3 3 3 3 3 3 3 3 2 1 1 3 4 4 5 5 4 3 2 3 3 4 3 3 3 3 3 3 3 2 2 3 3 3 3 3 3 3 3 3 3
3 3 3 3 3 3 2 2 2 3 3 2 1 1 3 3 3 3 4 3 3 3 3 3 3 3 3 3 3 3 3 3 3 3 3 3 3 3 4 4 4 5 4
3 4 4 3 2 2 2 2 2 2 2 3 3 3 2 2 2 2 3 3 3 3 3 4 3 3 3 2 2 3 3 3 3 3 3 4 4 4 5 5 4 4 4
2 3 5 3 3 2 2 2 2 2 2 2 3 3 5 3 4 4 4 4 4 4 4 4 3 3 3 3 3 3 3 3 3 3 3 3 3 3 4 4 4 5 4
2 3 3 3 3 2 2 2 2 2 2 2 2 2 5 3 3 3 3 4 4 4 3 3 3 3 3 3 3 3 3 3 3 3 3 3 3 4 4 4 4 4 5
2 2 2 2 2 3 3 2 2 2 2 2 2 2 2 2 2 2 3 3 2 3 3 3 3 3 3 3 3 3 4 4 3 3 3 3 4 4 4 4 5 5 5
2 2 2 2 2 2 2 2 2 2 2 2 2 2 2 2 2 2 2 1 1 1 2 3 3 4 5 4 3 4 4 4 3 3 4 4 4 4 4 4 5 6 6
2 2 2 2 2 2 2 2 3 3 2 2 2 2 2 2 2 2 1 1 1 1 2 3 3 4 5 5 4 4 5 6 6 5 4 4 5 5 5 6 6 6 6
3 3 2 2 2 2 2 3 3 3 2 2 2 2 2 2 2 2 2 1 2 2 2 2 4 4 5 4 5 5 5 6 7 8 6 4 5 5 6 6 7 6 6
Wind_Direction
184 176 158 150 149 147 144 143 134 133 144 161 147 128 123 125 130 120 120 119 123 135 128 113 93 71 67 54 46 45 42 78 111 88 87 105 98 104 109 117 121 127 127
184 169 157 157 160 161 154 154 155 160 158 156 146 139 129 122 131 136 143 131 121 105 109 111 113 99 77 55 55 64 66 66 107 110 98 99 100 129 129 129 123 123 124
157 159 162 163 161 161 157 163 171 161 152 150 142 144 137 135 135 138 144 141 122 120 112 115 116 114 112 87 80 76 78 79 87 117 122 110 102 110 108 104 105 114 121
146 156 164 167 162 162 157 155 159 157 163 166 145 136 134 135 125 119 116 102 105 100 101 102 101 105 107 97 87 69 81 82 80 105 113 115 114 101 94 95 57 100 97
151 159 168 160 144 139 143 146 139 147 147 137 128 121 111 111 103 100 100 107 127 124 113 109 113 112 102 99 96 81 80 83 95 108 112 102 103 104 147 179 143 256 241
159 156 153 146 141 144 145 131 114 99 97 87 102 113 115 105 101 92 80 78 131 137 133 127 131 126 119 118 115 111 116 123 130 121 140 161 209 196 183 160 168 147 285
154 146 142 136 134 140 134 120 120 116 101 92 98 107 115 110 118 116 108 45 330 145 136 131 132 128 130 129 131 133 121 156 163 156 159 210 186 203 164 188 225 229 232
151 147 138 141 139 138 134 133 144 125 122 135 141 136 123 122 126 121 115 113 344 152 150 140 134 123 121 120 146 164 190 193 185 175 172 188 109 140 173 194 210 251 307
138 142 145 146 146 147 149 151 151 141 143 161 158 138 133 135 139 134 131 161 201 208 123 105 123 123 115 111 121 148 161 247 161 153 160 150 121 74 83 90 78 91 288
149 154 147 145 148 154 159 159 153 147 160 162 173 178 165 153 156 149 150 155 195 175 135 105 94 113 117 119 133 134 173 279 78 98 129 179 171 166 101 146 160 168 255
148 149 143 139 147 154 155 151 150 158 162 168 186 193 174 161 163 159 156 166 193 180 145 133 130 130 135 139 130 137 203 186 181 157 168 190 176 169 164 164 170 181 207
129 135 142 145 161 158 149 156 166 164 163 180 197 205 171 152 155 164 164 175 164 128 152 134 133 139 138 145 144 160 61 43 115 89 160 204 213 237 225 178 253 276 262
144 153 158 156 161 153 151 160 164 153 165 198 205 193 166 132 141 154 167 180 185 151 68 127 143 155 151 170 207 209 129 142 165 196 223 239 235 225 171 8 294 299 310
166 166 162 155 150 145 143 159 169 179 191 200 197 202 189 153 131 136 165 186 184 187 204 111 168 189 196 183 197 217 210 201 196 213 226 238 250 238 230 220 238 277 302
185 171 163 159 161 162 142 150 181 199 196 190 199 201 195 204 199 174 173 187 191 200 181 174 170 184 209 202 199 204 204 208 224 230 228 238 241 236 240 228 210 215 250
193 174 169 165 158 159 145 91 41 163 180 172 186 196 213 208 193 185 188 193 196 195 180 194 201 201 207 210 206 210 208 215 221 220 224 226 233 236 242 238 226 228 248
189 179 169 169 171 176 175 172 167 12 35 245 224 200 193 197 192 192 193 193 201 191 198 210 213 213 219 217 212 211 215 217 213 214 224 232 239 244 246 245 236 241 251
191 186 181 178 178 186 191 190 190 195 213 263 262 211 197 196 200 201 191 159 198 214 209 212 218 220 219 215 214 218 224 222 220 224 228 233 236 240 248 249 242 243 255
192 184 178 177 177 184 184 189 202 206 202 201 197 223 207 195 191 203 184 189 208 218 217 220 221 221 219 213 210 212 219 226 229 227 229 233 236 239 247 249 246 253 252
196 187 172 169 181 184 179 189 202 202 199 196 201 203 182 162 183 202 208 220 217 221 220 220 224 224 221 219 215 217 223 224 226 231 238 241 237 236 244 246 242 249 253
188 180 176 179 191 192 191 200 205 201 209 220 217 205 192 200 208 208 207 213 218 222 225 219 216 217 216 219 222 228 232 233 231 234 240 244 247 250 247 243 243 244 253
176 179 186 191 191 190 196 198 207 209 215 229 231 213 203 210 211 212 217 215 214 219 222 219 222 214 212 216 217 225 239 245 244 245 246 244 245 249 254 257 256 252 250
178 187 195 200 193 194 195 198 204 214 223 219 212 216 216 231 230 221 225 222 212 212 214 215 228 234 227 226 223 220 231 240 240 244 251 254 251 250 250 251 255 262 257
176 191 198 198 197 196 199 206 213 221 225 223 219 220 221 226 237 238 238 237 220 232 232 228 232 239 239 236 236 234 238 244 248 253 252 256 259 259 259 257 257 256 257
182 194 200 201 210 219 223 226 225 221 226 231 226 221 220 221 232 238 234 230 245 250 268 264 260 258 254 253 251 248 244 244 248 254 255 255 255 257 260 261 261 259 258
196 200 205 205 211 222 234 242 241 236 234 237 231 223 222 223 228 224 211 221 240 253 273 273 277 281 277 272 270 266 263 262 261 262 263 257 250 251 255 258 260 260 259
Height
1531 1532 1534 1535 1536 1538 1539 1540 1541 1542 1543 1544 1545 1545 1546 1546 1546 1547 1547 1547 1547 1548 1548 1548 1548 1548 1549 1549 1549 1549 1549 1550 1550 1551 1551 1551 1551 1551 1551 1551 1551 1550 1550
1529 1531 1532 1533 1535 1536 1538 1539 1540 1541 1542 1543 1544 1544 1545 1545 1546 1546 1546 1546 1547 1547 1547 1547 1548 1548 1548 1548 1549 1549 1549 1549 1549 1549 1550 1550 1550 1550 1550 1550 1550 1549 1549
1527 1529 1530 1532 1533 1535 1536 1537 1539 1540 1541 1542 1543 1543 1544 1544 1545 1545 1545 1546 1546 1546 1547 1547 1547 1547 1547 1548 1548 1548 1549 1549 1549 1549 1550 1550 1550 1550 1549 1549 1549 1549 1548
1526 1527 1528 1530 1532 1533 1535 1536 1537 1538 1540 1540 1541 1542 1542 1543 1544 1544 1544 1545 1545 1546 1546 1546 1546 1547 1547 1547 1548 1548 1548 1548 1548 1549 1549 1549 1549 1549 1549 1548 1548 1548 1547
1524 1525 1526 1528 1530 1531 1533 1535 1536 1537 1538 1539 1540 1540 1541 1542 1542 1542 1543 1543 1544 1545 1545 1545 1545 1545 1546 1546 1546 1547 1547 1547 1548 1548 1548 1548 1548 1547 1547 1547 1547 1546 1546
1522 1524 1525 1526 1528 1529 1531 1533 1534 1535 1536 1537 1538 1539 1539 1540 1541 1541 1542 1542 1542 1543 1543 1544 1544 1544 1544 1545 1545 1546 1546 1546 1546 1546 1546 1546 1546 1546 1546 1545 1545 1545 1544
1521 1522 1523 1525 1526 1527 1529 1530 1532 1533 1534 1535 1536 1537 1537 1538 1539 1539 1540 1540 1541 1541 1542 1542 1542 1543 1543 1544 1544 1544 1544 1545 1545 1545 1545 1545 1544 1544 1544 1543 1543 1542 1542
1519 1520 1521 1522 1524 1525 1527 1528 1529 1531 1532 1532 1534 1535 1535 1536 1537 1538 1538 1539 1539 1539 1540 1540 1541 1541 1542 1542 1542 1542 1543 1543 1543 1543 1543 1543 1543 1542 1542 1542 1541 1540 1540
1516 1518 1519 1520 1522 1523 1524 1526 1527 1528 1529 1530 1531 1532 1533 1534 1535 1535 1536 1537 1537 1538 1538 1539 1539 1539 1540 1540 1541 1540 1540 1541 1541 1541 1541 1540 1540 1540 1540 1539 1538 1537 1537
1514 1515 1517 1518 1519 1520 1522 1523 1524 1526 1527 1528 1529 1530 1531 1532 1533 1534 1534 1535 1535 1536 1536 1537 1537 1538 1538 1538 1539 1538 1538 1538 1539 1538 1538 1538 1537 1537 1537 1536 1536 1535 1534
1512 1513 1514 1516 1517 1518 1519 1521 1522 1523 1524 1525 1527 1528 1529 1530 1531 1531 1532 1532 1533 1534 1534 1535 1535 1536 1536 1536 1536 1536 1536 1536 1536 1535 1535 1535 1535 1534 1534 1533 1533 1532 1531
1510 1511 1512 1513 1515 1516 1517 1518 1520 1521 1522 1523 1524 1525 1527 1527 1528 1529 1530 1530 1531 1531 1532 1532 1533 1533 1534 1534 1534 1534 1534 1533 1533 1533 1532 1532 1532 1531 1531 1530 1530 1529 1528
1507 1508 1509 1511 1512 1514 1515 1515 1517 1518 1519 1520 1521 1523 1523 1525 1525 1526 1527 1527 1528 1529 1529 1530 1530 1530 1531 1531 1531 1531 1531 1530 1530 1529 1529 1529 1529 1528 1528 1527 1526 1526 1525
1504 1505 1507 1508 1509 1511 1512 1513 1514 1515 1516 1517 1518 1519 1520 1521 1522 1522 1523 1524 1525 1525 1526 1526 1527 1527 1527 1527 1528 1527 1527 1527 1527 1526 1526 1526 1526 1525 1524 1524 1523 1522 1521
1502 1503 1504 1505 1506 1507 1509 1510 1511 1512 1513 1514 1514 1516 1516 1517 1518 1519 1520 1520 1521 1521 1522 1523 1523 1523 1523 1524 1524 1524 1524 1524 1523 1523 1523 1522 1522 1521 1521 1520 1519 1518 1517
1499 1500 1500 1501 1503 1504 1505 1506 1507 1509 1510 1510 1511 1512 1513 1514 1515 1515 1516 1516 1517 1518 1518 1518 1518 1519 1519 1520 1520 1520 1520 1520 1519 1519 1519 1519 1518 1517 1517 1516 1515 1514 1513
1496 1496 1497 1498 1499 1500 1501 1502 1503 1504 1505 1507 1507 1508 1509 1510 1510 1511 1512 1512 1513 1513 1514 1514 1514 1515 1515 1516 1516 1516 1516 1516 1516 1515 1515 1515 1514 1513 1513 1512 1511 1510 1509
1492 1493 1494 1495 1495 1496 1497 1498 1499 1500 1500 1501 1503 1504 1505 1505 1506 1506 1507 1508 1508 1508 1509 1509 1510 1510 1511 1511 1511 1511 1511 1511 1511 1510 1510 1510 1509 1509 1508 1507 1506 1505 1504
1488 1489 1490 1491 1492 1492 1493 1494 1495 1496 1496 1497 1498 1499 1500 1501 1501 1502 1502 1503 1503 1503 1504 1505 1505 1506 1506 1507 1507 1507 1506 1506 1506 1506 1505 1505 1504 1504 1503 1502 1501 1500 1499
1484 1485 1486 1487 1488 1489 1489 1490 1491 1492 1493 1493 1494 1495 1496 1496 1496 1497 1497 1498 1498 1498 1499 1500 1500 1501 1501 1501 1502 1501 1501 1501 1501 1500 1500 1499 1499 1498 1497 1496 1495 1494 1493
1480 1481 1483 1484 1484 1485 1485 1486 1487 1488 1489 1489 1490 1491 1492 1492 1492 1492 1493 1493 1494 1494 1494 1495 1495 1495 1496 1496 1496 1496 1496 1496 1495 1495 1494 1493 1493 1492 1491 1490 1489 1488 1488
1476 1477 1479 1480 1480 1481 1482 1483 1484 1484 1485 1485 1486 1487 1488 1488 1488 1488 1488 1489 1489 1490 1490 1490 1490 1490 1491 1491 1491 1491 1490 1490 1490 1489 1488 1487 1487 1486 1485 1484 1483 1483 1482
1472 1474 1475 1476 1477 1477 1478 1479 1480 1480 1481 1481 1482 1483 1483 1483 1483 1484 1484 1484 1484 1485 1485 1485 1485 1485 1485 1485 1485 1485 1485 1484 1484 1483 1482 1481 1480 1480 1479 1478 1477 1476 1476
1468 1469 1471 1472 1473 1474 1474 1475 1475 1476 1477 1477 1478 1478 1478 1479 1479 1479 1479 1479 1479 1480 1480 1480 1480 1480 1480 1480 1479 1479 1479 1478 1478 1477 1476 1475 1474 1473 1472 1472 1471 1470 1470
1464 1465 1467 1467 1468 1470 1470 1471 1471 1471 1472 1473 1473 1473 1474 1474 1474 1474 1474 1474 1474 1474 1474 1474 1474 1474 1474 1474 1473 1473 1473 1472 1472 1471 1470 1469 1468 1467 1466 1466 1465 1464 1463
1460 1461 1463 1463 1464 1465 1466 1466 1467 1467 1467 1468 1468 1468 1469 1469 1469 1469 1469 1469 1469 1469 1469 1468 1468 1468 1468 1468 1467 1467 1466 1465 1465 1464 1463 1462 1461 1460 1460 1459 1458 1458 1457